Port Aransas, TX

10:14 AM CDT on August 22, 2017 (GMT -0500)
Port Aransas

Weather History for KRAS - November, 2012

Change the Weather History Date:

Monday, November 12, 2012

  Actual Average (KNGP) Record (KNGP)
Temperature  
Mean Temperature 65 °F -  
Max Temperature 73 °F 72 °F 86 °F (2007)
Min Temperature 57 °F 59 °F 44 °F (2014)
Growing Degree Days 15 (Base 50)    
Moisture  
Dew Point 45 °F    
Average Humidity 53    
Maximum Humidity 94    
Minimum Humidity 32    
Precipitation  
Precipitation 0.01 in - - ()
Sea Level Pressure  
Sea Level Pressure 30.29 in    
Wind  
Wind Speed 17 mph (NNE)    
Max Wind Speed 26 mph    
Max Gust Speed 40 mph    
Visibility 10 miles    
Events Rain    
Averages and records for this station are not official NWS values.
T = Trace of Precipitation, MM = Missing Value Source: NWS Daily Summary

Daily Weather History Graph

Daily Weather History Graph

Search for Another Location

Airport or City:

Trip Planner

Search our weather history database for the weather conditions in past years. The results will help you decide how hot, cold, wet, or windy it might be!

Date:

Astronomy

Nov. 12, 2012 Rise Set
Actual Time 6:47 AM CST 5:37 PM CST
Civil Twilight 6:23 AM CST 6:01 PM CST
Nautical Twilight 5:54 AM CST 6:29 PM CST
Astronomical Twilight 5:27 AM CST 6:57 PM CST
Moon 5:19 AM CST (11/12) 4:40 PM CST (11/12)
Length of Visible Light 11h 38m
Length of Day
10h 49m
Waning Crescent, 2% of the Moon is Illuminated
Nov 12
Waning Crescent
Nov 13
New
Nov 20
First Quarter
Nov 28
Full
Dec 6
Last Quarter

Hourly Weather History & Observations

Time (CST) Temp. Dew Point Humidity Pressure Visibility Wind Dir Wind Speed Gust Speed Precip Events Conditions
12:15 AM 73.4 °F 71.6 °F 94% 30.06 in 3.0 mi Calm Calm - N/A   Overcast
12:55 AM 71.6 °F 69.8 °F 94% 30.08 in 4.0 mi North 10.4 mph 16.1 mph N/A   Overcast
1:15 AM 68.0 °F 60.8 °F 78% 30.10 in 10.0 mi NNE 23.0 mph 29.9 mph N/A   Overcast
1:35 AM 64.4 °F 59.0 °F 83% 30.11 in 7.0 mi NNE 20.7 mph 29.9 mph N/A Rain Rain
1:55 AM 64.4 °F 55.4 °F 73% 30.11 in 10.0 mi NNE 25.3 mph 31.1 mph 0.01 in   Overcast
2:15 AM 64.4 °F 53.6 °F 68% 30.11 in 10.0 mi NNE 21.9 mph 27.6 mph N/A   Overcast
2:35 AM 66.2 °F 55.4 °F 68% 30.12 in 10.0 mi NNE 19.6 mph 25.3 mph N/A   Overcast
2:55 AM 66.2 °F 53.6 °F 64% 30.12 in 10.0 mi NNE 19.6 mph 25.3 mph N/A   Overcast
3:15 AM 66.2 °F 51.8 °F 60% 30.13 in 10.0 mi NNE 23.0 mph 28.8 mph N/A   Overcast
3:35 AM 66.2 °F 51.8 °F 60% 30.13 in 10.0 mi NNE 21.9 mph 27.6 mph N/A   Overcast
3:55 AM 64.4 °F 51.8 °F 64% 30.14 in 10.0 mi NNE 20.7 mph 27.6 mph N/A   Overcast
4:15 AM 64.4 °F 51.8 °F 64% 30.13 in 10.0 mi NNE 20.7 mph 32.2 mph N/A   Mostly Cloudy
4:35 AM 64.4 °F 51.8 °F 64% 30.15 in 10.0 mi NNE 21.9 mph 32.2 mph N/A   Scattered Clouds
4:55 AM 64.4 °F 51.8 °F 64% 30.17 in 10.0 mi NNE 23.0 mph 35.7 mph N/A   Mostly Cloudy
5:15 AM 62.6 °F 51.8 °F 68% 30.18 in 10.0 mi NNE 24.2 mph 29.9 mph N/A   Overcast
5:35 AM 62.6 °F 51.8 °F 68% 30.19 in 10.0 mi NNE 23.0 mph 31.1 mph N/A   Overcast
5:55 AM 62.6 °F 51.8 °F 68% 30.19 in 10.0 mi NNE 23.0 mph 34.5 mph N/A   Overcast
6:55 AM 62.6 °F 50.0 °F 63% 30.24 in 10.0 mi NNE 26.5 mph 35.7 mph N/A   Overcast
7:15 AM 62.6 °F 51.8 °F 68% 30.25 in 10.0 mi NNE 26.5 mph 40.3 mph N/A   Overcast
7:35 AM 62.6 °F 51.8 °F 68% 30.28 in 10.0 mi NNE 19.6 mph 29.9 mph N/A   Overcast
7:55 AM 60.8 °F 50.0 °F 68% 30.30 in 10.0 mi NE 19.6 mph 28.8 mph N/A   Overcast
8:15 AM 62.6 °F 50.0 °F 63% 30.30 in 10.0 mi NNE 23.0 mph 34.5 mph N/A   Overcast
8:35 AM 62.6 °F 50.0 °F 63% 30.31 in 10.0 mi NNE 24.2 mph 29.9 mph N/A   Overcast
8:55 AM 62.6 °F 50.0 °F 63% 30.33 in 10.0 mi NE 24.2 mph 34.5 mph N/A   Overcast
9:15 AM 62.6 °F 50.0 °F 63% 30.33 in 10.0 mi NNE 20.7 mph 32.2 mph N/A   Overcast
9:55 AM 62.6 °F 48.2 °F 59% 30.35 in 10.0 mi NNE 21.9 mph 32.2 mph N/A   Overcast
10:15 AM 62.6 °F 50.0 °F 63% 30.35 in 10.0 mi NNE 19.6 mph 27.6 mph N/A   Overcast
10:35 AM 64.4 °F 46.4 °F 52% 30.35 in 10.0 mi NNE 23.0 mph 29.9 mph N/A   Overcast
10:55 AM 64.4 °F 48.2 °F 56% 30.35 in 10.0 mi NNE 23.0 mph 27.6 mph N/A   Overcast
11:15 AM 64.4 °F 48.2 °F 56% 30.35 in 10.0 mi North 21.9 mph 25.3 mph N/A   Mostly Cloudy
11:35 AM 64.4 °F 46.4 °F 52% 30.35 in 10.0 mi NNE 21.9 mph 27.6 mph N/A   Clear
11:55 AM 66.2 °F 44.6 °F 46% 30.35 in 10.0 mi NNE 19.6 mph 31.1 mph N/A   Scattered Clouds
12:15 PM 64.4 °F 42.8 °F 45% 30.33 in 10.0 mi NNE 20.7 mph 28.8 mph N/A   Mostly Cloudy
12:35 PM 64.4 °F 44.6 °F 49% 30.33 in 10.0 mi NNE 20.7 mph 27.6 mph N/A   Overcast
12:55 PM 64.4 °F 44.6 °F 49% 30.33 in 10.0 mi North 18.4 mph 26.5 mph N/A   Overcast
1:15 PM 64.4 °F 44.6 °F 49% 30.33 in 10.0 mi North 16.1 mph - N/A   Overcast
1:35 PM 64.4 °F 42.8 °F 45% 30.33 in 10.0 mi North 20.7 mph 26.5 mph N/A   Mostly Cloudy
1:55 PM 64.4 °F 42.8 °F 45% 30.33 in 10.0 mi North 17.3 mph - N/A   Mostly Cloudy
2:15 PM 66.2 °F 41.0 °F 40% 30.32 in 10.0 mi NNE 16.1 mph 24.2 mph N/A   Overcast
2:35 PM 64.4 °F 39.2 °F 40% 30.32 in 10.0 mi North 18.4 mph 24.2 mph N/A   Overcast
2:55 PM 68.0 °F 39.2 °F 35% 30.32 in 10.0 mi NNE 18.4 mph 25.3 mph N/A   Scattered Clouds
3:15 PM 66.2 °F 37.4 °F 35% 30.32 in 10.0 mi NNE 18.4 mph 24.2 mph N/A   Clear
3:35 PM 66.2 °F 37.4 °F 35% 30.33 in 10.0 mi NNE 13.8 mph 23.0 mph N/A   Clear
3:55 PM 66.2 °F 37.4 °F 35% 30.33 in 10.0 mi NNE 15.0 mph 21.9 mph N/A   Clear
4:15 PM 66.2 °F 35.6 °F 32% 30.33 in 10.0 mi NNE 17.3 mph - N/A   Clear
4:35 PM 64.4 °F 35.6 °F 34% 30.33 in 10.0 mi NNE 17.3 mph - N/A   Clear
4:55 PM 64.4 °F 35.6 °F 34% 30.33 in 10.0 mi NNE 16.1 mph 21.9 mph N/A   Clear
5:15 PM 64.4 °F 33.8 °F 32% 30.33 in 10.0 mi NNE 16.1 mph 19.6 mph N/A   Clear
5:35 PM 62.6 °F 35.6 °F 37% 30.34 in 10.0 mi NNE 13.8 mph - N/A   Clear
5:55 PM 62.6 °F 35.6 °F 37% 30.34 in 10.0 mi North 12.7 mph 19.6 mph N/A   Clear
6:15 PM 62.6 °F 35.6 °F 37% 30.35 in 10.0 mi North 12.7 mph - N/A   Clear
6:55 PM 62.6 °F 35.6 °F 37% 30.35 in 10.0 mi NNE 13.8 mph - N/A   Clear
7:15 PM 62.6 °F 35.6 °F 37% 30.36 in 10.0 mi NNE 12.7 mph 19.6 mph N/A   Clear
7:35 PM 62.6 °F 35.6 °F 37% 30.36 in 10.0 mi NNE 16.1 mph - N/A   Clear
7:55 PM 60.8 °F 37.4 °F 42% 30.36 in 10.0 mi NNE 15.0 mph 23.0 mph N/A   Clear
8:15 PM 60.8 °F 37.4 °F 42% 30.37 in 10.0 mi NNE 13.8 mph 21.9 mph N/A   Clear
8:35 PM 60.8 °F 35.6 °F 39% 30.38 in 10.0 mi NNE 17.3 mph 24.2 mph N/A   Clear
8:55 PM 60.8 °F 39.2 °F 45% 30.39 in 10.0 mi NNE 15.0 mph 20.7 mph N/A   Clear
9:15 PM 60.8 °F 35.6 °F 39% 30.40 in 10.0 mi NNE 17.3 mph 23.0 mph N/A   Clear
9:35 PM 59.0 °F 35.6 °F 42% 30.40 in 10.0 mi NNE 16.1 mph 26.5 mph N/A   Clear
9:55 PM 59.0 °F 37.4 °F 45% 30.40 in 10.0 mi North 20.7 mph 25.3 mph N/A   Clear
10:15 PM 59.0 °F 35.6 °F 42% 30.40 in 10.0 mi North 18.4 mph 24.2 mph N/A   Clear
10:35 PM 59.0 °F 37.4 °F 45% 30.40 in 10.0 mi NNE 16.1 mph 24.2 mph N/A   Clear
10:55 PM 57.2 °F 37.4 °F 48% 30.40 in 10.0 mi North 18.4 mph 24.2 mph N/A   Clear
11:15 PM 57.2 °F 39.2 °F 51% 30.40 in 10.0 mi North 15.0 mph 20.7 mph N/A   Clear
11:35 PM 57.2 °F 39.2 °F 51% 30.40 in 10.0 mi NNE 15.0 mph 21.9 mph N/A   Clear
11:55 PM 57.2 °F 37.4 °F 48% 30.39 in 10.0 mi NNE 18.4 mph 21.9 mph N/A   Clear